Regional Weather Roundup
Issued by NWS Kansas City/Pleasant Hill, MO

Home | Current Version | Previous Version | Text Only | Print | Product List | Glossary On
Versions: 1 2 3 4 5 6 7 8 9 10 11 12 13 14 15 16 17 18 19 20 21 22 23 24 25 26 27 28 29 30 31 32 33 34 35 36 37 38 39 40 41 42 43 44 45 46 47 48 49 50
000
ASUS43 KEAX 031910
RWREAX

WEATHER ROUNDUP FOR EASTERN KANSAS AND NORTHWEST MISSOURI
NATIONAL WEATHER SERVICE KANSAS CITY/PLEASANT HILL MO
200 PM CDT THU SEP 03 2015

KSZ040-057-103>105-MOZ028-029-037-043-032000-
...KANSAS CITY METROPOLITAN AREA...

CITY           SKY/WX    TMP DP  RH WIND       PRES   REMARKS
K.C. INTL      PTSUNNY   91  68  46 S16G22    29.92F HX  95
K.C. DOWNTOWN  SUNNY     91  68  46 SW12      29.91F HX  95
LEES SUMMIT    MOSUNNY   89  67  47 S13G20    29.94F HX  92
OLATHE - IXD   SUNNY     89  70  53 S14G22    29.94F HX  94
OLATHE - OJC   SUNNY     87  68  52 S13       29.93F HX  90
LAWRENCE       SUNNY     91  68  46 S15       29.91F HX  95

$$

MOZ001>008-011>017-020>025-030>033-038>040-044>046-053-054-032000-
...NORTHERN AND CENTRAL MISSOURI...

CITY           SKY/WX    TMP DP  RH WIND       PRES   REMARKS
ST. JOSEPH     SUNNY     90  71  53 S13       29.89F HX  96
MOSBY          CLEAR     90  64  43 S13G20    29.92F HX  91
WARRENSBURG    SUNNY     90  64  43 S10G17    29.94F HX  91
WHITEMAN AFB   SUNNY     92  67  44 SW15      29.94F HX  95
CLINTON        SUNNY     91  70  49 SW10      29.97F HX  97
SEDALIA        MOSUNNY   93  67  42 S10       29.98F HX  96
WARSAW         NOT AVBL
CHILLICOTHE      N/A     92  69  47 S10G17    29.92F HX  97
KIRKSVILLE     SUNNY     91  67  44 S10       29.95F HX  94

$$

MOZ041-047>049-056>058-063>065-088>090-097-032000-
...EASTERN AND SOUTHERN MISSOURI...

CITY           SKY/WX    TMP DP  RH WIND       PRES   REMARKS
ST. LOUIS INTL MOSUNNY   92  66  42 W12       29.97F HX  94
SPIRIT OF STL  MOSUNNY   90  71  53 SW7       29.95F HX  96
COLUMBIA       SUNNY     89  69  51 SW9       29.97F HX  93
JEFFERSON CITY MOSUNNY   90  66  45 MISG      29.95F HX  92
ROLLA          PTSUNNY   89  64  43 SW10      29.98F HX  90
OSAGE BEACH    MOSUNNY   91  64  40 SW7       29.99F HX  93
SPRINGFIELD    MOSUNNY   88  66  48 S10       30.00F HX  90
BRANSON        MOSUNNY   88  66  48 S10       30.02F HX  90
JOPLIN         MOSUNNY   88  69  53 SW9       29.98F HX  92
WEST PLAINS    MOSUNNY   89  65  44 VRB6      30.03F HX  91

$$

IAZ060-094-KSZ022-034>040-054-083-096-NEZ052-066-093-032000-
...KANSAS...SOUTHEAST NEBRASKA AND IOWA...

CITY           SKY/WX    TMP DP  RH WIND       PRES   REMARKS
TOPEKA         SUNNY     91  66  43 S14       29.89F HX  93
MANHATTAN      SUNNY     96  64  34 S17G28    29.85F HX  98
EMPORIA        SUNNY     91  67  44 S20G26    29.91F HX  94
CHANUTE        SUNNY     88  69  53 S15       29.96F HX  92
WICHITA        MOSUNNY   93  62  35 S25G32    29.88F HX  93
OMAHA          MOSUNNY   90  69  50 S16       29.84F HX  94
LINCOLN        SUNNY     93  69  45 S13       29.83F HX  98
FALLS CITY     SUNNY     93  68  43 S14       29.86F HX  97
LAMONI         SUNNY     88  71  57 SW13      29.91F HX  94
DES MOINES     MOSUNNY   88  72  58 S10       29.88F HX  94

$$



USA.gov is the U.S. government's official web portal to all federal, state and local government web resources and services.